CAPE
2 1 1 1 2 1 1 1 1 0 0 0 0 2 3 1 0 0 0 0 108 2029 1532 750 584 1518 130 1 125 750 604 107 83 142 182 0 1 6 55 70 28 129 228 246 205
1 1 1 2 1 1 1 0 0 0 0 0 0 1 2 1 0 0 0 1429 1690 2258 472 301 424 665 1660 781 659 414 51 2 14 23 137 129 91 25 90 67 0 69 263 297 300
1 1 1 1 1 1 1 1 0 1 0 1 0 1 1 1 0 0 93 2442 2033 2163 950 759 905 892 1145 514 426 465 0 31 103 94 193 105 119 57 32 39 28 111 255 319 294
1 0 1 0 0 1 1 1 1 1 1 1 0 0 1 0 0 0 2540 2848 2339 1291 975 455 650 694 20 313 373 44 0 39 159 241 52 0 11 14 49 46 0 79 135 141 0
1 2 2 1 0 0 1 1 1 1 1 0 0 1 0 0 0 184 2910 2696 1578 1064 747 575 569 168 18 7 12 0 0 0 30 28 8 2 0 2 10 74 39 56 65 0 0
2 2 1 1 1 1 2 2 1 0 0 0 0 0 0 0 0 78 848 1188 530 457 33 244 109 21 26 0 4 0 0 0 0 0 32 3 14 7 79 84 39 0 0 0 0
1 1 1 1 1 1 1 1 0 0 0 0 0 0 0 0 0 0 38 36 3 78 1 0 0 0 0 42 45 0 0 0 0 0 2 0 0 45 80 53 28 0 0 0 0
1 1 1 1 0 0 0 0 0 0 0 0 0 0 0 0 0 0 0 0 0 0 0 0 0 0 4 14 150 49 0 59 11 0 12 0 0 0 55 68 41 23 13 0 0
0 1 1 0 0 0 0 0 0 0 0 0 0 0 0 0 0 0 0 0 0 0 0 0 0 0 0 19 4 0 0 16 42 233 250 74 78 9 3 3 14 7 21 21 0
0 0 0 0 0 0 0 0 0 0 0 0 0 0 0 0 0 0 0 0 0 0 0 0 0 0 0 0 15 9 6 3 6 104 136 88 195 267 23 0 1 0 0 0 0
0 0 0 0 0 0 0 0 0 0 0 0 0 0 0 0 0 0 0 0 0 0 0 0 0 0 0 6 55 54 33 152 198 106 155 530 473 249 244 7 0 0 0 0 0
0 0 0 0 0 0 0 0 0 0 0 0 0 0 0 0 0 0 0 0 0 0 0 0 0 0 0 2 94 47 71 118 201 36 353 476 451 8 116 55 134 7 0 0 0
0 0 0 0 0 0 0 0 0 0 0 0 0 0 0 0 0 0 0 0 0 0 0 0 0 0 0 3 39 81 41 38 153 39 311 219 327 77 24 79 2 93 81 0 0
0 0 0 0 0 0 0 0 0 0 0 0 0 0 0 0 0 0 0 0 0 0 0 0 0 0 44 111 13 65 58 75 141 76 85 197 92 102 7 66 1 12 167 7 2
0 0 0 0 0 0 0 0 0 0 0 0 0 0 0 0 0 0 0 0 0 0 0 0 0 0 0 33 18 22 73 135 172 175 39 123 213 108 4 11 32 0 46 29 7
0 0 0 0 0 0 0 0 0 0 0 0 0 0 0 0 0 0 0 0 0 0 0 0 0 0 0 0 0 22 121 165 115 32 37 55 38 0 131 97 48 22 3 134 11
0 0 0 0 0 0 0 0 0 0 0 0 0 0 0 0 0 0 0 0 0 0 0 0 0 0 0 0 0 0 35 19 137 60 8 3 65 31 108 84 111 0 206 236 36
0 0 0 0 0 0 0 0 0 0 0 0 0 0 0 0 0 0 0 0 0 0 0 0 0 0 0 0 0 0 0 0 0 0 72 32 27 0 11 19 0 0 47 76 69
0 0 0 0 0 0 0 0 0 0 0 0 0 0 0 0 0 0 0 0 0 0 0 0 0 0 0 0 0 0 0 0 0 0 31 0 2 54 64 60 6 103 56 8 81
0 0 0 0 0 0 0 0 0 0 0 0 0 0 0 0 0 0 0 0 0 0 0 0 0 0 0 0 0 0 0 0 0 0 0 0 2 31 42 36 134 75 88 69 39
0 0 0 0 0 0 0 0 0 0 0 0 0 0 0 0 0 0 0 0 0 0 0 0 0 0 0 0 0 0 0 0 0 0 0 0 3 1 3 2 47 42 50 25 34
0 0 0 0 0 0 0 0 0 0 0 0 0 0 0 0 0 0 0 0 0 0 0 0 0 0 0 0 0 0 0 0 0 0 0 0 0 0 0 3 0 0 1 2 17
0 0 0 0 0 0 0 0 0 0 0 0 0 0 0 0 0 0 0 0 0 0 0 0 0 0 0 0 0 0 0 0 0 0 0 0 0 0 0 0 0 0 0 0 0
0 0 0 0 0 0 0 0 0 0 0 0 0 0 0 0 0 0 0 0 0 0 170 0 0 0 0 0 0 0 0 0 0 0 0 0 0 0 0 4 0 0 0 0 0
0 0 0 0 0 0 0 0 0 0 0 0 0 0 0 0 0 0 0 0 0 0 0 0 0 0 0 0 0 0 0 0 0 0 0 0 0 0 1 0 0 0 0 0 267
0 0 0 0 0 0 0 0 0 0 0 0 0 0 0 0 0 0 0 0 0 0 0 0 0 0 0 0 0 0 0 0 0 0 0 0 0 0 0 0 0 2 233 384 361
0 0 0 0 0 0 0 0 0 0 0 0 0 0 0 0 0 0 0 0 0 0 0 0 0 0 0 0 0 0 0 0 0 0 0 0 0 0 0 0 0 211 422 472 470
CIN
0 0 0 0 0 0 0 0 0 0 0 0 0 0 0 0 0 0 0 0 -82 -427 -444 -453 -312 -112 -406 -278 -423 -187 -89 -55 -80 -54 -69 0 -11 -52 -113 -164 -106 -120 -125 -148 -134
0 0 0 0 0 0 0 0 0 0 0 0 0 0 0 0 0 0 0 -566 -558 -468 -428 -398 -192 -118 -84 -148 -211 -177 -164 -18 -107 -123 -73 -56 -70 -210 -109 -128 0 -148 -127 -126 -110
0 0 0 0 0 0 0 0 0 0 0 0 0 0 0 0 0 0 -589 -568 -562 -531 -279 -234 -133 -257 -99 -228 -192 -111 0 -81 -58 -67 -47 -61 -50 -102 -152 -170 -260 -223 -156 -127 -122
0 0 0 0 0 0 0 0 0 0 0 0 0 0 0 0 0 0 -601 -581 -573 -549 -336 -161 -115 -89 -187 -177 -116 -44 0 -65 -57 -55 -66 0 -130 -117 -106 -164 -19 -227 -218 -212 0
0 0 0 0 0 0 0 0 0 0 0 0 0 0 0 0 0 -489 -533 -557 -584 -518 -312 -195 -111 -119 -122 -57 -39 0 0 0 -69 -32 -45 -24 0 -9 -70 -135 -206 -232 -218 0 0
0 0 0 0 0 0 0 0 0 0 0 0 0 -1 0 0 0 -650 -672 -599 -505 -448 -383 -235 -139 -177 -130 0 -45 0 0 0 0 0 -30 -15 -44 -45 -116 -168 -187 0 0 0 0
0 0 0 0 0 0 0 0 0 0 0 0 0 0 0 0 0 0 -920 -843 -52 -485 -37 0 -26 0 0 -83 -111 0 0 0 0 0 -9 0 0 -102 -139 -189 -209 0 0 0 0
0 0 0 0 0 0 0 0 0 0 0 0 0 0 0 0 0 0 0 0 0 0 0 0 0 0 -97 -190 -95 -119 0 -79 -37 0 -39 0 0 0 -206 -197 -263 -258 -261 0 0
0 0 0 0 0 0 0 0 0 0 0 0 0 0 0 0 0 0 0 0 0 0 0 0 0 0 0 -154 -97 0 -8 -106 -103 -144 -112 -130 -168 -81 -140 -152 -250 -149 -182 -276 0
0 0 0 0 0 0 0 0 0 0 0 0 0 0 0 0 0 0 0 0 0 0 0 0 0 0 0 0 -54 -112 -124 -125 -116 -245 -235 -253 -200 -185 -112 0 -48 0 0 0 0
0 0 0 0 0 0 0 0 0 0 0 0 0 0 0 0 0 0 0 0 0 0 0 0 0 0 0 -139 -125 -169 -229 -133 -229 -281 -278 -217 -260 -274 -241 -122 0 0 0 0 0
0 0 0 0 0 0 0 0 0 0 0 0 0 0 0 0 0 0 0 0 0 0 0 0 0 0 0 -50 -119 -198 -190 -253 -221 -295 -259 -227 -268 -94 -379 -382 -273 -133 0 0 0
0 0 0 0 0 0 0 0 0 0 0 0 0 0 0 0 0 0 0 0 0 0 0 0 0 0 0 -98 -157 -168 -236 -340 -137 -326 -329 -284 -254 -423 -414 -360 -222 -402 -404 0 0
0 0 0 0 0 0 0 0 0 0 0 0 0 0 0 0 0 0 0 0 0 0 0 0 0 0 -190 -100 -179 -159 -271 -259 -160 -250 -255 -229 -211 -463 -449 -449 -100 -348 -334 -485 -338
0 0 0 0 0 0 0 0 0 0 0 0 0 0 0 0 0 0 0 0 0 0 0 0 0 0 0 -145 -147 -86 -218 -190 -237 -179 -216 -267 -110 -271 -187 -427 -451 -32 -464 -434 -420
0 0 0 0 0 0 0 0 0 0 0 0 0 0 0 0 0 0 0 0 0 0 0 0 0 0 0 0 0 -64 -185 -216 -207 -340 -198 -188 -142 -1 -340 -391 -338 -322 -44 -334 -443
0 0 0 0 0 0 0 0 0 0 0 0 0 0 0 0 0 0 0 0 0 0 0 0 0 0 0 0 0 0 -165 -70 -101 -122 -47 -97 -112 -90 -356 -271 -343 0 -292 -263 -379
0 0 0 0 0 0 0 0 0 0 0 0 0 0 0 0 0 0 0 0 0 0 0 0 0 0 0 0 0 0 0 0 0 0 -82 -114 -63 0 -342 -199 0 0 -378 -374 -332
0 0 0 0 0 0 0 0 0 0 0 0 0 0 0 0 0 0 0 0 0 0 0 0 0 0 0 0 0 0 0 0 0 0 -93 0 -16 -165 -249 -249 -330 -357 -351 -464 -371
0 0 0 0 0 0 0 0 0 0 0 0 0 0 0 0 0 0 0 0 0 0 0 0 0 0 0 0 0 0 0 0 0 0 0 0 -51 -93 -171 -164 -344 -338 -299 -359 -452
0 0 0 0 0 0 0 0 0 0 0 0 0 0 0 0 0 0 0 0 0 0 0 0 0 0 0 0 0 0 0 0 0 0 0 0 -32 -62 -48 -143 -272 -265 -226 -344 -523
0 0 0 0 0 0 0 0 0 0 0 0 0 0 0 0 0 0 0 0 0 0 0 0 0 0 0 0 0 0 0 0 0 0 0 0 0 0 0 -266 0 -31 -207 -119 -451
0 0 0 0 0 0 0 0 0 0 0 0 0 0 0 0 0 0 0 0 0 0 0 0 0 0 0 0 0 0 0 0 0 0 0 0 0 0 0 0 0 0 0 0 0
0 0 0 0 0 0 0 0 0 0 0 0 0 0 0 0 0 0 0 0 0 0 -539 0 0 0 0 0 0 0 0 0 0 0 0 0 0 0 0 -114 0 0 0 0 0
0 0 0 0 0 0 0 0 0 0 0 0 0 0 0 0 0 0 0 0 0 0 0 0 0 0 0 0 0 0 0 0 0 0 0 0 0 0 -42 0 0 0 0 0 -225
0 0 0 0 0 0 0 0 0 0 0 0 0 0 0 0 0 0 0 0 0 0 0 0 0 0 0 0 0 0 0 0 0 0 0 0 0 0 0 0 0 -25 -241 -230 -237
0 0 0 0 0 0 0 0 0 0 0 0 0 0 0 0 0 0 0 0 0 0 0 0 0 0 0 0 0 0 0 0 0 0 0 0 0 0 0 0 0 -222 -176 -206 -238
Wind_Speed
20 19 19 20 20 21 20 19 20 20 21 20 20 18 17 16 16 4 7 9 12 16 23 12 6 11 4 8 4 3 1 4 8 9 6 15 11 12 12 15 6 6 8 15 15
20 20 20 20 20 20 20 21 20 20 20 20 19 18 15 15 3 7 13 13 26 21 14 16 14 8 4 1 4 4 4 10 7 7 13 18 15 17 13 12 3 8 12 17 17
21 21 21 21 20 21 21 20 21 20 20 18 18 17 14 10 4 10 6 18 27 17 9 9 16 17 13 6 10 8 4 8 5 3 17 9 17 13 17 7 14 24 19 19 19
23 23 22 22 22 21 21 21 20 20 19 18 16 15 14 3 5 3 8 11 20 11 1 4 6 6 5 7 12 6 8 7 6 8 13 12 14 11 19 9 20 25 21 17 18
23 23 22 23 23 22 21 21 21 20 18 16 13 11 3 2 11 3 11 11 10 7 6 5 3 4 3 3 8 13 8 8 8 10 9 9 9 10 13 19 18 21 19 16 17
22 23 23 23 23 23 22 20 21 19 17 14 11 7 1 3 7 10 11 7 4 6 6 7 4 5 4 5 5 5 11 10 9 7 9 8 5 5 14 22 21 21 20 16 13
23 24 24 24 24 23 23 23 22 20 16 12 8 3 1 16 1 7 11 10 6 7 4 5 4 4 4 4 4 11 7 5 6 8 6 5 4 10 20 22 23 20 18 17 17
24 25 25 25 26 25 24 24 23 20 15 11 6 2 8 7 5 4 5 3 6 6 5 9 8 7 2 2 5 5 6 4 1 5 2 8 6 14 21 22 21 20 19 19 19
25 25 26 26 25 25 26 27 23 14 6 3 3 3 11 11 6 10 10 8 5 5 6 10 2 3 5 6 3 5 5 4 3 10 4 10 7 18 19 19 18 18 18 18 17
26 26 27 27 26 25 27 24 7 3 3 5 4 3 5 6 5 5 8 9 5 4 5 2 4 4 4 4 5 6 5 4 3 8 14 10 9 13 8 16 18 16 15 16 15
27 27 28 29 26 23 15 4 6 5 1 8 7 6 5 3 1 5 6 4 3 4 6 5 2 6 11 9 4 5 5 4 4 8 7 5 3 9 9 10 14 16 14 14 15
27 27 29 31 30 25 2 3 5 4 9 11 14 13 19 5 7 7 8 7 6 7 2 1 9 9 8 10 7 6 6 4 4 10 9 7 5 19 12 12 5 6 13 15 14
27 27 28 33 34 1 2 6 9 6 2 9 9 9 11 10 9 12 10 5 5 5 5 9 15 7 8 6 10 7 12 6 4 8 10 5 7 15 19 8 11 8 7 12 16
27 26 26 32 4 6 6 7 8 3 5 10 4 8 6 9 6 9 9 8 2 9 6 8 12 8 4 7 9 6 11 15 9 4 4 7 7 8 16 17 19 12 8 14 15
28 26 23 10 6 4 7 9 9 7 4 3 3 3 4 10 4 5 5 6 9 9 7 13 6 7 6 14 12 16 22 23 15 11 6 6 1 9 7 13 25 17 14 18 18
29 27 21 1 2 11 11 11 5 7 5 4 4 5 6 4 6 2 4 3 7 6 2 11 5 6 9 8 10 18 14 11 5 5 3 12 12 4 6 20 13 17 14 19 18
33 31 12 4 7 2 5 5 6 4 7 9 1 3 4 7 5 6 4 4 7 4 5 8 11 6 5 6 2 7 13 4 2 2 8 4 9 10 22 19 21 16 11 20 20
35 31 5 7 5 3 4 7 2 4 3 4 9 3 7 7 7 8 5 5 5 5 5 6 11 4 5 9 10 6 11 8 7 9 6 1 4 12 21 11 4 3 6 5 16
30 5 4 6 8 3 7 4 8 4 4 9 11 4 4 4 1 3 9 10 12 10 10 7 12 6 4 6 10 9 3 9 7 5 4 5 6 11 5 5 8 10 9 9 9
6 5 5 5 9 6 6 5 5 3 7 3 0 4 1 3 6 3 4 7 8 13 8 10 6 6 14 2 3 9 5 1 4 3 4 6 4 7 7 10 8 6 6 9 10
3 5 6 6 6 6 3 7 6 8 4 4 9 6 4 2 2 1 4 10 10 9 11 7 6 17 2 6 11 1 2 4 7 6 7 3 8 10 13 9 9 9 11 11 13
5 2 3 3 4 1 1 4 5 12 14 6 7 8 2 3 1 3 5 5 9 4 9 15 9 9 15 10 8 10 16 9 8 6 3 7 9 4 10 10 13 13 12 14 10
3 5 6 6 4 5 8 7 4 10 7 7 6 4 1 3 4 4 7 9 10 5 7 7 5 9 12 8 4 5 5 7 6 5 7 7 8 2 9 8 11 14 15 9 7
2 6 7 7 3 3 6 6 9 9 6 4 5 5 8 9 5 5 13 8 16 10 23 3 6 11 13 11 4 4 4 5 8 5 6 8 7 6 13 13 8 11 11 15 11
3 2 1 6 6 6 3 4 10 11 11 9 6 13 5 8 7 8 7 9 16 11 16 7 5 6 8 6 5 3 9 8 8 9 8 10 11 11 12 12 14 9 7 18 15
4 5 6 5 5 7 6 6 10 20 5 9 7 10 8 7 1 7 5 4 6 11 10 8 7 6 4 5 0 3 7 10 14 6 4 5 7 12 18 4 5 9 14 17 17
4 4 4 5 6 4 2 7 11 13 6 9 8 6 6 8 6 10 7 8 9 3 6 3 4 8 7 3 5 5 8 5 6 6 10 6 11 4 5 9 8 11 17 19 18
Wind_Direction
346 343 341 339 336 333 331 328 326 325 325 326 328 330 328 325 310 151 240 201 151 154 132 142 134 129 49 20 25 296 212 223 192 168 148 156 159 170 162 136 175 186 140 164 159
344 340 338 338 335 332 329 327 324 323 323 325 327 328 327 332 311 240 246 136 143 148 136 160 139 179 185 338 210 226 238 187 178 149 156 172 158 161 150 164 94 111 120 147 161
342 338 335 335 334 331 327 325 322 321 321 324 324 325 324 327 339 250 226 136 157 167 157 175 154 166 191 157 200 210 258 117 122 129 150 140 154 154 148 180 162 150 159 159 163
339 335 333 331 331 330 325 322 320 318 319 321 322 322 324 302 226 306 103 127 156 170 45 166 193 199 225 181 232 208 140 131 147 108 133 151 159 168 166 180 158 155 161 156 165
335 331 329 327 328 326 324 319 316 314 315 316 320 327 325 33 252 157 125 136 129 153 183 186 195 221 284 8 13 121 129 126 132 129 152 156 174 186 164 143 152 153 161 159 165
332 329 328 326 325 324 322 316 312 310 309 309 311 321 208 242 245 146 132 142 182 171 156 186 220 246 260 205 119 169 132 142 141 160 164 164 206 119 150 142 154 163 165 164 166
332 330 327 325 323 323 319 313 311 305 301 297 293 248 264 234 267 131 151 181 199 168 172 222 199 221 338 42 306 157 128 130 151 168 163 112 105 144 155 155 159 170 172 172 176
332 330 328 326 323 322 316 312 307 297 292 274 244 205 249 251 200 183 207 249 251 191 203 242 159 273 164 140 43 57 50 109 301 171 186 113 233 141 160 160 170 173 178 181 187
332 330 327 324 323 320 315 310 301 285 227 159 139 165 266 306 182 211 171 205 210 266 259 270 91 203 39 92 32 23 131 86 59 34 70 52 15 339 171 167 174 180 185 190 190
332 331 328 324 324 322 317 305 274 312 157 179 259 357 279 248 236 199 176 191 175 199 324 274 52 83 39 76 199 206 129 156 124 7 53 52 12 341 347 173 182 187 192 195 196
333 332 328 325 324 324 337 10 14 19 111 205 196 242 274 253 211 224 199 159 113 103 191 261 98 214 208 207 180 155 121 110 158 102 85 82 3 308 302 294 186 188 192 195 197
331 333 329 325 324 326 146 40 232 234 296 234 238 237 261 56 315 278 102 151 132 220 203 1 238 214 198 204 176 151 128 163 300 143 96 72 1 275 287 283 206 197 202 188 199
330 331 331 323 321 331 233 237 275 329 327 287 209 201 232 140 220 246 134 169 183 187 195 192 237 167 220 245 151 222 174 149 102 63 64 78 272 261 269 248 276 250 238 209 189
327 330 334 329 9 328 288 284 330 90 46 277 223 247 203 155 296 216 167 141 136 200 212 228 256 227 178 179 150 217 185 148 105 74 192 176 258 249 249 274 269 262 230 214 198
327 329 330 322 296 311 261 339 326 57 7 173 209 179 152 147 195 299 147 85 192 207 109 252 237 234 167 215 184 233 167 173 170 176 105 201 342 282 119 264 260 246 229 205 204
322 322 330 158 221 243 306 309 48 49 270 321 148 171 103 209 248 292 157 121 189 189 159 240 255 164 227 228 193 242 163 172 72 53 356 210 198 270 195 228 249 239 219 205 193
322 317 311 232 228 328 321 37 46 147 305 330 304 208 168 192 234 159 222 180 171 137 291 293 279 276 208 267 328 124 125 112 264 29 236 240 178 220 214 222 211 247 202 196 193
322 313 221 212 240 334 34 56 154 265 294 326 357 20 178 168 229 190 179 208 240 128 135 203 297 218 239 182 214 179 164 154 192 169 215 321 197 256 215 244 164 141 131 146 191
322 319 279 253 197 120 72 85 208 230 15 349 331 125 298 312 323 125 186 194 199 166 167 169 257 302 234 239 144 257 132 187 124 93 101 220 284 309 272 209 160 156 182 202 202
318 333 271 260 131 71 73 235 255 308 334 31 89 298 6 344 6 50 220 223 215 190 163 215 280 216 266 25 269 162 182 144 360 144 228 278 285 234 280 260 130 206 217 216 177
8 15 270 112 77 53 145 239 296 273 310 313 289 252 252 65 283 247 243 302 221 228 162 149 140 267 133 189 231 132 176 77 120 136 161 181 255 212 221 193 208 204 222 219 183
350 36 267 57 48 53 181 230 271 296 307 289 213 216 147 66 339 312 253 223 319 228 166 201 165 231 237 251 217 176 198 145 129 251 205 154 265 241 208 207 189 207 218 234 168
354 277 309 77 67 346 312 299 307 4 324 9 332 10 356 66 25 311 329 317 353 272 215 189 223 241 285 344 14 193 189 157 115 76 204 147 254 235 233 243 189 179 207 217 176
30 1 334 28 92 36 344 300 330 312 290 354 272 342 15 4 21 354 349 325 333 353 5 191 153 169 223 213 173 335 232 170 137 122 206 209 239 245 219 226 209 199 218 217 215
37 347 29 327 333 333 305 277 332 359 344 349 3 9 338 33 10 359 342 321 331 10 359 32 201 162 214 189 170 196 252 230 166 199 158 232 189 227 213 212 207 226 213 200 173
52 25 346 295 303 350 351 355 351 340 332 339 5 349 37 102 75 308 329 341 274 334 349 343 320 354 258 171 327 299 293 264 226 182 212 227 240 206 218 194 208 201 159 156 166
327 326 102 286 333 13 12 341 344 353 292 353 330 334 8 2 308 259 241 248 240 228 319 296 20 8 282 19 30 341 256 265 214 188 178 177 216 216 159 209 214 167 166 170 172